This demonstration page uses our WeatherBlox Daily Observations layout. Learn more.

Left ArrowRight Arrow

Hourly Observations for February 3, 2016

Temp ( °F °C ) Dew Point ( °F °C ) Humidity (%) Winds ( mph kmh ) Pressure ( in mb ) Visibility ( mi km ) Precip ( " mm )
12:14 am 00:14 Partly Cloudy 57 14 57 14 100 100 S 9 15 29.53 1000 10 16 N/A
12:34 am 00:34 Mostly Cloudy 57 14 57 14 100 100 S 9 15 29.53 1000 10 16 N/A
12:54 am 00:54 Cloudy 57 14 57 14 100 100 S 9 15 29.50 999 10 16 N/A
1:14 am 01:14 Cloudy 57 14 57 14 100 100 S 9 15 29.50 999 10 16 N/A
1:34 am 01:34 Cloudy 57 14 57 14 100 100 S 10 17 29.53 1000 10 16 N/A
1:54 am 01:54 Cloudy 57 14 57 14 100 100 S 15 24 29.53 1000 10 16 N/A
2:14 am 02:14 Mostly Cloudy 57 14 57 14 100 100 SSW 10 17 29.53 1000 10 16 N/A
2:34 am 02:34 Mostly Cloudy 57 14 55 13 94 94 SW 10 17 29.53 1000 10 16 N/A
2:55 am 02:55 Partly Cloudy 57 14 55 13 94 94 SW 9 15 29.56 1001 10 16 N/A
3:14 am 03:14 Partly Cloudy 57 14 52 11 82 82 WSW 13 20 29.53 1000 10 16 N/A
3:34 am 03:34 Clear 55 13 48 9 77 77 WSW 13 20 29.53 1000 10 16 N/A
3:55 am 03:55 Clear 54 12 46 8 77 77 WSW 14 22 29.53 1000 10 16 N/A
4:14 am 04:14 Clear 54 12 45 7 72 72 WSW 14 22 29.53 1000 10 16 N/A
4:34 am 04:34 Clear 54 12 43 6 67 67 WSW 15 24 29.56 1001 10 16 N/A
4:55 am 04:55 Clear 52 11 43 6 72 72 WSW 12 19 29.56 1001 10 16 N/A
5:14 am 05:14 Clear 50 10 41 5 71 71 SW 12 19 29.59 1002 10 16 N/A
5:34 am 05:34 Clear 50 10 39 4 67 67 SW 12 19 29.59 1002 10 16 N/A
5:55 am 05:55 Clear 50 10 39 4 67 67 SW 10 17 29.59 1002 10 16 N/A
6:14 am 06:14 Clear 48 9 39 4 71 71 SW 9 15 29.59 1002 10 16 N/A
6:35 am 06:35 Clear 48 9 41 5 76 76 SW 9 15 29.59 1002 10 16 N/A
6:54 am 06:54 Clear 48 9 39 4 71 71 SW 12 19 29.62 1003 10 16 N/A
7:15 am 07:15 Clear 46 8 39 4 76 76 SW 13 20 29.62 1003 10 16 N/A
7:34 am 07:34 Clear 48 9 36 2 62 62 WSW 18 30 29.65 1004 10 16 N/A
7:54 am 07:54 Sunny 45 7 36 2 71 71 WSW 16 26 29.68 1005 10 16 N/A
8:15 am 08:15 Sunny 45 7 34 1 66 66 WSW 13 20 29.68 1005 10 16 N/A
8:34 am 08:34 Sunny 45 7 34 1 66 66 WSW 14 22 29.68 1005 10 16 N/A
8:54 am 08:54 Sunny 45 7 32 undefined 61 61 WSW 18 30 29.68 1005 10 16 N/A
9:14 am 09:14 Sunny 46 8 32 undefined 57 57 WSW 22 35 29.71 1006 10 16 N/A
9:34 am 09:34 Sunny 46 8 34 1 62 62 WSW 22 35 29.71 1006 10 16 N/A
9:54 am 09:54 Sunny 46 8 32 undefined 57 57 WSW 23 37 29.74 1007 10 16 N/A
10:14 am 10:14 Sunny 46 8 32 undefined 57 57 WSW 26 43 29.74 1007 10 16 N/A
10:34 am 10:34 Sunny 46 8 34 1 62 62 WSW 18 30 29.74 1007 10 16 N/A
10:54 am 10:54 Sunny 45 7 32 undefined 61 61 WSW 26 43 29.74 1007 10 16 N/A
11:15 am 11:15 Sunny 46 8 32 undefined 57 57 WSW 24 39 29.77 1008 10 16 N/A
11:34 am 11:34 Sunny 46 8 32 undefined 57 57 SW 22 35 29.77 1008 10 16 N/A
11:55 am 11:55 Partly Cloudy 46 8 34 1 62 62 WSW 25 41 29.77 1008 10 16 N/A
12:15 pm 12:15 Partly Cloudy 45 7 32 undefined 61 61 WSW 23 37 29.80 1009 10 16 N/A
12:34 pm 12:34 Partly Cloudy 46 8 32 undefined 57 57 WSW 23 37 29.80 1009 10 16 N/A
12:55 pm 12:55 Mostly Cloudy 45 7 34 1 66 66 WSW 17 28 29.80 1009 10 16 N/A
1:14 pm 13:14 Mostly Cloudy 43 6 32 undefined 66 66 WSW 23 37 29.80 1009 10 16 N/A
1:34 pm 13:34 Mostly Cloudy 45 7 32 undefined 61 61 W 24 39 29.80 1009 10 16 N/A
1:55 pm 13:55 Mostly Cloudy 45 7 32 undefined 61 61 WSW 22 35 29.80 1009 10 16 N/A
2:14 pm 14:14 Cloudy 45 7 32 undefined 61 61 WSW 25 41 29.83 1010 10 16 N/A
2:34 pm 14:34 Cloudy 41 5 32 undefined 70 70 WSW 22 35 29.83 1010 10 16 N/A
2:55 pm 14:55 Cloudy 39 4 30 -1 70 70 WSW 21 33 29.83 1010 10 16 N/A
3:14 pm 15:14 Cloudy 39 4 30 -1 70 70 WSW 21 33 29.85 1011 10 16 N/A
3:34 pm 15:34 Cloudy 39 4 30 -1 70 70 W 23 37 29.85 1011 10 16 N/A
3:55 pm 15:55 Cloudy 39 4 30 -1 70 70 WSW 20 31 29.88 1012 10 16 N/A
4:14 pm 16:14 Cloudy 37 3 30 -1 75 75 SW 21 33 29.88 1012 10 16 N/A
4:34 pm 16:34 Cloudy 37 3 30 -1 75 75 W 21 33 29.91 1013 10 16 N/A
4:55 pm 16:55 Cloudy 37 3 30 -1 75 75 W 16 26 29.91 1013 10 16 N/A
5:14 pm 17:14 Cloudy 37 3 30 -1 75 75 WSW 17 28 29.94 1014 10 16 N/A
5:34 pm 17:34 Cloudy 37 3 30 -1 75 75 W 18 30 29.94 1014 10 16 N/A
5:55 pm 17:55 Cloudy 36 2 32 undefined 87 87 W 15 24 30.00 1016 10 16 N/A
6:14 pm 18:14 Cloudy 36 2 30 -1 81 81 W 20 31 30.00 1016 10 16 N/A
6:34 pm 18:34 Cloudy 36 2 30 -1 81 81 W 20 31 30.03 1017 10 16 N/A
6:55 pm 18:55 Cloudy 36 2 30 -1 81 81 W 16 26 30.03 1017 10 16 N/A
7:14 pm 19:14 Cloudy 36 2 30 -1 81 81 W 18 30 30.03 1017 10 16 N/A
7:34 pm 19:34 Cloudy 34 1 30 -1 87 87 WSW 16 26 30.03 1017 10 16 N/A
7:55 pm 19:55 Cloudy 34 1 30 -1 87 87 W 17 28 30.06 1018 10 16 N/A
8:14 pm 20:14 Cloudy 34 1 30 -1 87 87 W 17 28 30.06 1018 10 16 N/A
8:34 pm 20:34 Cloudy 32 undefined 30 -1 93 93 W 18 30 30.09 1019 5 8 N/A
8:55 pm 20:55 Cloudy 32 undefined 30 -1 93 93 W 21 33 30.09 1019 5 8 N/A
9:14 pm 21:14 Cloudy 32 undefined 30 -1 93 93 W 20 31 30.09 1019 7 11 N/A
9:34 pm 21:34 Cloudy 32 undefined 28 -2 87 87 W 21 33 30.09 1019 10 16 N/A
9:55 pm 21:55 Cloudy 32 undefined 27 -3 80 80 W 20 31 30.12 1020 10 16 N/A
10:14 pm 22:14 Cloudy 32 undefined 27 -3 80 80 W 18 30 30.12 1020 10 16 N/A
10:34 pm 22:34 Cloudy 32 undefined 27 -3 80 80 W 20 31 30.12 1020 10 16 N/A
10:55 pm 22:55 Cloudy 30 -1 27 -3 86 86 W 17 28 30.12 1020 10 16 N/A
11:14 pm 23:14 Cloudy 30 -1 27 -3 86 86 W 14 22 30.12 1020 10 16 N/A
11:34 pm 23:34 Cloudy 30 -1 27 -3 86 86 W 17 28 30.12 1020 10 16 N/A
11:55 pm 23:55 Cloudy 30 -1 27 -3 86 86 W 16 26 30.15 1021 10 16 N/A

Powered by AerisWeather